GEFSMW_prec_meanprecacc_174.txt.gz
Total_Precipitation_Accumulation
0.90 0.99 1.08 1.34 1.54 1.65 1.74 1.80 1.88 1.97 2.21 2.39 2.37 2.30 2.17 1.94 1.81 1.76 1.60 1.42 1.32 1.35 1.31 1.22 1.11 1.02 0.92 0.82 0.76 0.73 0.68 0.62 0.60 0.61 0.52 0.45 0.42 0.39 0.35 0.34 0.34 0.32 0.31
0.78 0.87 0.94 1.08 1.23 1.40 1.58 1.72 1.80 1.91 1.95 2.04 2.27 2.40 2.46 2.31 2.04 1.86 1.73 1.57 1.45 1.41 1.35 1.34 1.31 1.21 1.12 1.06 1.01 0.98 0.92 0.85 0.84 0.83 0.79 0.63 0.48 0.38 0.34 0.35 0.36 0.36 0.36
0.64 0.71 0.79 0.98 1.09 1.20 1.40 1.64 1.77 1.89 1.92 1.97 2.22 2.44 2.60 2.45 2.18 1.85 1.66 1.63 1.61 1.57 1.44 1.41 1.44 1.36 1.26 1.15 1.11 1.11 1.08 1.01 0.97 0.96 1.00 0.86 0.60 0.41 0.32 0.29 0.30 0.34 0.36
0.56 0.59 0.68 0.81 0.92 1.07 1.22 1.36 1.52 1.70 1.88 1.97 2.02 2.08 2.19 2.18 1.97 1.88 1.79 1.78 1.75 1.71 1.62 1.54 1.52 1.48 1.40 1.25 1.20 1.17 1.12 1.09 1.03 0.98 0.90 0.82 0.67 0.62 0.47 0.32 0.30 0.33 0.34
0.56 0.56 0.66 0.78 0.84 0.94 1.17 1.28 1.35 1.53 1.73 1.87 1.95 2.05 2.02 2.05 2.12 2.08 2.00 1.89 1.82 1.76 1.67 1.58 1.56 1.48 1.42 1.37 1.37 1.30 1.26 1.18 1.11 1.05 0.98 0.94 0.81 0.68 0.65 0.49 0.35 0.35 0.36
0.65 0.68 0.74 0.76 0.77 0.82 1.03 1.23 1.25 1.34 1.47 1.67 1.88 1.96 1.88 1.90 1.95 1.94 1.90 1.89 1.88 1.83 1.72 1.59 1.51 1.45 1.40 1.39 1.40 1.43 1.37 1.30 1.24 1.18 1.12 1.09 1.02 0.87 0.82 0.73 0.51 0.44 0.39
0.62 0.68 0.71 0.66 0.66 0.71 0.84 1.02 1.13 1.24 1.30 1.44 1.59 1.75 1.83 1.82 1.85 1.87 1.84 1.76 1.68 1.60 1.58 1.57 1.51 1.44 1.37 1.35 1.36 1.39 1.36 1.31 1.27 1.20 1.16 1.14 1.09 0.99 0.97 0.93 0.73 0.59 0.47
0.48 0.52 0.59 0.62 0.62 0.63 0.70 0.77 0.82 0.91 0.99 1.07 1.19 1.31 1.51 1.61 1.59 1.64 1.64 1.62 1.54 1.52 1.52 1.50 1.50 1.50 1.47 1.41 1.38 1.38 1.36 1.34 1.26 1.16 1.10 1.06 1.00 0.99 1.00 1.00 0.99 0.91 0.70
0.47 0.49 0.55 0.57 0.61 0.63 0.67 0.68 0.69 0.73 0.83 0.86 0.93 0.97 1.12 1.27 1.32 1.38 1.37 1.31 1.32 1.38 1.39 1.38 1.38 1.39 1.40 1.38 1.37 1.34 1.31 1.30 1.27 1.21 1.14 1.04 0.92 0.90 0.91 0.94 1.01 1.12 1.02
0.45 0.44 0.50 0.53 0.56 0.61 0.64 0.63 0.64 0.65 0.75 0.81 0.85 0.86 0.90 0.98 1.11 1.20 1.14 1.12 1.14 1.18 1.22 1.20 1.20 1.21 1.22 1.24 1.27 1.23 1.19 1.18 1.14 1.14 1.14 1.10 1.02 0.97 0.97 1.00 1.06 1.15 1.21
0.45 0.46 0.49 0.52 0.56 0.61 0.61 0.58 0.62 0.63 0.68 0.73 0.73 0.73 0.76 0.81 0.87 0.94 0.97 0.96 1.00 1.01 1.02 1.03 1.04 1.03 1.05 1.09 1.13 1.09 1.07 1.09 1.08 1.07 1.10 1.11 1.10 1.11 1.09 1.12 1.17 1.23 1.31
0.45 0.44 0.44 0.49 0.53 0.54 0.50 0.49 0.55 0.58 0.63 0.66 0.64 0.63 0.65 0.68 0.71 0.75 0.80 0.81 0.85 0.88 0.90 0.91 0.92 0.89 0.87 0.91 0.95 0.98 0.97 0.97 0.98 1.01 1.07 1.09 1.10 1.16 1.18 1.20 1.23 1.25 1.25
0.33 0.33 0.34 0.36 0.37 0.37 0.37 0.41 0.45 0.43 0.45 0.48 0.47 0.49 0.50 0.54 0.60 0.63 0.64 0.66 0.72 0.77 0.80 0.81 0.83 0.84 0.82 0.83 0.84 0.85 0.86 0.87 0.88 0.88 0.92 0.93 0.98 1.04 1.06 1.11 1.15 1.16 1.15
0.25 0.27 0.28 0.26 0.28 0.29 0.31 0.34 0.32 0.34 0.36 0.36 0.36 0.38 0.41 0.44 0.48 0.50 0.49 0.50 0.54 0.60 0.64 0.69 0.72 0.73 0.75 0.78 0.81 0.83 0.83 0.81 0.80 0.80 0.82 0.85 0.90 0.94 0.99 1.05 1.07 1.09 1.10
0.19 0.22 0.23 0.22 0.24 0.24 0.25 0.26 0.27 0.33 0.38 0.38 0.37 0.37 0.37 0.39 0.42 0.43 0.44 0.43 0.43 0.44 0.47 0.53 0.61 0.66 0.68 0.72 0.76 0.79 0.81 0.82 0.81 0.83 0.88 0.92 1.02 1.03 1.00 0.97 0.95 0.97 1.02
0.15 0.16 0.17 0.18 0.19 0.20 0.23 0.27 0.31 0.39 0.44 0.47 0.42 0.39 0.38 0.38 0.35 0.34 0.34 0.35 0.36 0.37 0.40 0.45 0.49 0.56 0.62 0.79 0.78 0.73 0.74 0.81 0.85 0.87 0.86 0.90 0.99 0.97 0.96 0.91 0.87 0.88 0.96
0.12 0.13 0.13 0.15 0.18 0.22 0.28 0.34 0.39 0.46 0.48 0.51 0.47 0.42 0.38 0.36 0.33 0.30 0.31 0.33 0.35 0.38 0.42 0.44 0.48 0.53 0.67 0.83 0.80 0.83 0.76 0.78 0.83 0.85 0.83 0.79 0.75 0.78 0.70 0.75 0.80 0.81 0.81
0.08 0.08 0.10 0.11 0.13 0.18 0.26 0.33 0.39 0.51 0.54 0.53 0.51 0.49 0.49 0.49 0.51 0.51 0.52 0.52 0.51 0.53 0.58 0.63 0.65 0.69 0.78 0.83 0.75 0.72 0.67 0.70 0.72 0.70 0.68 0.64 0.59 0.57 0.57 0.60 0.66 0.59 0.55
0.05 0.06 0.06 0.07 0.08 0.10 0.17 0.25 0.37 0.52 0.64 0.69 0.68 0.68 0.71 0.75 0.79 0.81 0.81 0.80 0.81 0.81 0.79 0.76 0.72 0.68 0.69 0.69 0.63 0.59 0.54 0.55 0.55 0.52 0.51 0.50 0.48 0.54 0.62 0.58 0.53 0.49 0.47
0.08 0.07 0.07 0.08 0.10 0.13 0.19 0.32 0.48 0.63 0.73 0.76 0.79 0.83 0.89 0.95 0.92 0.90 0.87 0.79 0.74 0.73 0.72 0.70 0.67 0.60 0.54 0.49 0.44 0.42 0.39 0.38 0.36 0.35 0.35 0.41 0.42 0.52 0.59 0.52 0.49 0.47 0.40
0.18 0.18 0.18 0.21 0.23 0.26 0.35 0.48 0.59 0.68 0.71 0.71 0.72 0.75 0.74 0.75 0.73 0.70 0.67 0.62 0.56 0.50 0.46 0.43 0.39 0.35 0.33 0.32 0.31 0.31 0.29 0.29 0.31 0.31 0.29 0.31 0.41 0.46 0.50 0.50 0.44 0.44 0.47
0.22 0.29 0.35 0.37 0.38 0.40 0.46 0.53 0.55 0.55 0.53 0.50 0.48 0.45 0.41 0.37 0.37 0.38 0.38 0.37 0.34 0.30 0.26 0.24 0.22 0.20 0.20 0.22 0.24 0.28 0.31 0.33 0.32 0.30 0.28 0.30 0.42 0.48 0.48 0.45 0.45 0.51 0.54
0.09 0.14 0.20 0.24 0.25 0.25 0.27 0.29 0.27 0.23 0.20 0.17 0.15 0.14 0.12 0.11 0.11 0.12 0.13 0.16 0.19 0.18 0.17 0.16 0.17 0.17 0.17 0.19 0.23 0.26 0.32 0.37 0.35 0.31 0.34 0.37 0.42 0.44 0.43 0.44 0.47 0.48 0.45
0.04 0.04 0.06 0.07 0.07 0.08 0.09 0.09 0.07 0.05 0.04 0.04 0.03 0.04 0.04 0.04 0.06 0.07 0.09 0.11 0.12 0.13 0.14 0.16 0.16 0.16 0.16 0.17 0.20 0.24 0.30 0.36 0.38 0.37 0.37 0.39 0.40 0.40 0.39 0.41 0.42 0.41 0.41
0.03 0.04 0.04 0.04 0.05 0.05 0.05 0.05 0.05 0.05 0.05 0.04 0.04 0.04 0.05 0.06 0.06 0.07 0.08 0.10 0.11 0.13 0.17 0.18 0.19 0.21 0.21 0.19 0.27 0.34 0.35 0.38 0.42 0.46 0.44 0.40 0.38 0.36 0.35 0.35 0.35 0.37 0.39
0.05 0.05 0.05 0.06 0.07 0.07 0.08 0.09 0.09 0.09 0.08 0.08 0.07 0.08 0.08 0.09 0.09 0.10 0.11 0.13 0.14 0.16 0.19 0.20 0.21 0.20 0.23 0.27 0.34 0.38 0.41 0.46 0.53 0.57 0.50 0.39 0.34 0.33 0.34 0.35 0.37 0.38 0.39

GEFSMW_prec_meanprecacc_180.txt.gz
Total_Precipitation_Accumulation
0.92 1.01 1.10 1.38 1.60 1.75 1.89 1.97 2.05 2.11 2.32 2.47 2.45 2.37 2.23 2.00 1.88 1.84 1.74 1.60 1.50 1.52 1.49 1.33 1.18 1.09 1.00 0.88 0.80 0.75 0.70 0.64 0.62 0.63 0.54 0.45 0.43 0.39 0.35 0.34 0.34 0.32 0.31
0.79 0.90 0.96 1.11 1.29 1.49 1.71 1.89 1.96 2.05 2.06 2.11 2.32 2.46 2.52 2.36 2.08 1.91 1.80 1.70 1.63 1.60 1.54 1.50 1.41 1.28 1.20 1.15 1.08 1.02 0.95 0.88 0.87 0.86 0.82 0.65 0.49 0.39 0.34 0.35 0.37 0.36 0.36
0.65 0.74 0.82 1.02 1.14 1.28 1.51 1.79 1.92 2.01 2.01 2.03 2.26 2.47 2.64 2.50 2.23 1.90 1.73 1.73 1.74 1.74 1.64 1.60 1.59 1.45 1.32 1.23 1.20 1.16 1.11 1.04 1.00 1.00 1.04 0.88 0.61 0.41 0.33 0.30 0.31 0.34 0.36
0.57 0.61 0.72 0.86 0.97 1.13 1.30 1.48 1.66 1.81 1.97 2.03 2.07 2.11 2.23 2.23 2.04 1.94 1.86 1.86 1.86 1.84 1.78 1.71 1.69 1.62 1.48 1.31 1.26 1.23 1.15 1.10 1.04 1.01 0.94 0.85 0.69 0.62 0.47 0.33 0.30 0.33 0.34
0.58 0.58 0.69 0.83 0.88 0.99 1.24 1.37 1.45 1.61 1.79 1.94 2.00 2.09 2.04 2.08 2.16 2.13 2.07 1.97 1.91 1.86 1.78 1.71 1.69 1.62 1.52 1.44 1.42 1.36 1.31 1.22 1.14 1.07 1.01 0.98 0.83 0.69 0.66 0.50 0.35 0.36 0.36
0.67 0.71 0.77 0.81 0.82 0.87 1.08 1.29 1.32 1.40 1.52 1.72 1.93 1.99 1.90 1.92 1.97 1.96 1.93 1.94 1.94 1.90 1.80 1.67 1.60 1.55 1.52 1.47 1.45 1.47 1.42 1.36 1.28 1.21 1.14 1.13 1.06 0.89 0.84 0.74 0.52 0.44 0.39
0.63 0.71 0.75 0.71 0.71 0.75 0.88 1.07 1.18 1.29 1.35 1.47 1.62 1.80 1.87 1.85 1.88 1.90 1.86 1.79 1.71 1.64 1.63 1.63 1.56 1.50 1.44 1.42 1.41 1.43 1.41 1.36 1.31 1.24 1.19 1.18 1.13 1.03 1.00 0.95 0.75 0.60 0.48
0.49 0.54 0.62 0.66 0.68 0.68 0.74 0.81 0.88 0.96 1.04 1.11 1.22 1.36 1.56 1.65 1.62 1.67 1.68 1.65 1.58 1.56 1.56 1.54 1.54 1.54 1.51 1.45 1.43 1.42 1.39 1.37 1.29 1.19 1.14 1.10 1.05 1.04 1.05 1.04 1.02 0.93 0.71
0.47 0.49 0.57 0.59 0.64 0.67 0.71 0.71 0.73 0.78 0.88 0.90 0.97 1.01 1.18 1.32 1.36 1.42 1.41 1.35 1.36 1.42 1.44 1.43 1.44 1.45 1.46 1.42 1.41 1.38 1.34 1.33 1.29 1.23 1.16 1.06 0.95 0.94 0.96 0.98 1.04 1.14 1.03
0.46 0.45 0.51 0.54 0.58 0.63 0.67 0.65 0.65 0.67 0.78 0.84 0.88 0.90 0.95 1.03 1.16 1.24 1.18 1.15 1.17 1.21 1.25 1.24 1.25 1.28 1.29 1.30 1.31 1.26 1.22 1.20 1.16 1.15 1.15 1.11 1.03 1.00 1.01 1.04 1.09 1.16 1.22
0.46 0.46 0.50 0.53 0.56 0.61 0.62 0.59 0.64 0.65 0.70 0.76 0.76 0.77 0.80 0.84 0.89 0.96 0.99 0.98 1.02 1.02 1.03 1.04 1.06 1.05 1.09 1.13 1.16 1.12 1.09 1.11 1.10 1.08 1.11 1.12 1.11 1.13 1.11 1.16 1.21 1.26 1.32
0.45 0.44 0.45 0.49 0.53 0.54 0.51 0.50 0.56 0.59 0.65 0.69 0.67 0.67 0.70 0.72 0.74 0.76 0.81 0.82 0.85 0.89 0.91 0.92 0.93 0.90 0.88 0.93 0.97 1.00 0.98 0.98 0.99 1.02 1.07 1.10 1.11 1.17 1.19 1.23 1.27 1.29 1.27
0.33 0.33 0.34 0.36 0.37 0.37 0.37 0.41 0.45 0.44 0.47 0.50 0.49 0.51 0.52 0.55 0.61 0.64 0.64 0.67 0.72 0.77 0.80 0.81 0.83 0.84 0.82 0.83 0.85 0.86 0.87 0.88 0.88 0.89 0.92 0.94 0.99 1.05 1.07 1.12 1.18 1.19 1.19
0.25 0.27 0.28 0.27 0.28 0.29 0.31 0.34 0.32 0.34 0.37 0.37 0.37 0.39 0.42 0.45 0.48 0.51 0.50 0.50 0.54 0.60 0.64 0.69 0.72 0.73 0.75 0.78 0.82 0.84 0.84 0.82 0.81 0.81 0.83 0.86 0.91 0.95 1.01 1.06 1.09 1.12 1.13
0.20 0.22 0.23 0.23 0.24 0.25 0.26 0.27 0.28 0.34 0.39 0.40 0.39 0.38 0.38 0.40 0.42 0.43 0.44 0.43 0.44 0.44 0.47 0.53 0.61 0.66 0.68 0.72 0.77 0.79 0.82 0.82 0.82 0.84 0.89 0.93 1.03 1.04 1.01 0.98 0.96 0.99 1.05
0.15 0.16 0.18 0.19 0.20 0.22 0.24 0.28 0.32 0.40 0.45 0.47 0.43 0.40 0.38 0.38 0.36 0.34 0.34 0.35 0.36 0.37 0.40 0.45 0.49 0.56 0.63 0.79 0.78 0.74 0.75 0.82 0.86 0.87 0.87 0.91 1.00 0.98 0.97 0.92 0.87 0.89 0.97
0.12 0.13 0.14 0.16 0.19 0.25 0.30 0.36 0.40 0.47 0.48 0.51 0.47 0.42 0.38 0.37 0.34 0.31 0.31 0.33 0.35 0.38 0.42 0.44 0.48 0.54 0.67 0.84 0.80 0.84 0.77 0.79 0.84 0.86 0.83 0.79 0.76 0.78 0.70 0.75 0.81 0.82 0.82
0.08 0.08 0.10 0.12 0.13 0.18 0.26 0.33 0.40 0.51 0.54 0.53 0.51 0.50 0.49 0.50 0.52 0.51 0.52 0.52 0.51 0.53 0.58 0.63 0.66 0.69 0.78 0.84 0.76 0.73 0.68 0.71 0.73 0.71 0.69 0.64 0.59 0.57 0.58 0.61 0.67 0.59 0.55
0.05 0.06 0.06 0.08 0.08 0.11 0.17 0.25 0.38 0.53 0.64 0.69 0.68 0.68 0.72 0.77 0.80 0.82 0.81 0.80 0.81 0.81 0.79 0.77 0.73 0.69 0.69 0.69 0.64 0.60 0.55 0.56 0.55 0.52 0.51 0.51 0.48 0.55 0.63 0.58 0.54 0.49 0.47
0.08 0.07 0.07 0.09 0.11 0.13 0.20 0.33 0.49 0.63 0.73 0.76 0.80 0.83 0.89 0.96 0.93 0.91 0.88 0.81 0.75 0.74 0.73 0.71 0.67 0.61 0.54 0.49 0.44 0.42 0.39 0.39 0.36 0.35 0.35 0.41 0.42 0.52 0.59 0.53 0.50 0.47 0.40
0.18 0.18 0.18 0.21 0.23 0.26 0.35 0.49 0.60 0.68 0.71 0.71 0.72 0.75 0.74 0.76 0.74 0.72 0.69 0.64 0.57 0.51 0.46 0.43 0.40 0.35 0.33 0.32 0.31 0.31 0.29 0.30 0.31 0.31 0.29 0.31 0.41 0.46 0.50 0.51 0.45 0.44 0.48
0.22 0.29 0.35 0.37 0.38 0.40 0.47 0.54 0.55 0.55 0.53 0.50 0.48 0.45 0.41 0.38 0.38 0.39 0.40 0.39 0.35 0.30 0.27 0.24 0.23 0.20 0.20 0.22 0.24 0.28 0.31 0.34 0.32 0.30 0.28 0.30 0.42 0.48 0.49 0.46 0.45 0.52 0.55
0.10 0.14 0.20 0.24 0.25 0.25 0.28 0.30 0.27 0.23 0.20 0.17 0.15 0.14 0.12 0.12 0.13 0.13 0.14 0.17 0.19 0.18 0.17 0.17 0.18 0.18 0.17 0.20 0.23 0.26 0.33 0.37 0.35 0.31 0.34 0.38 0.42 0.45 0.43 0.44 0.47 0.49 0.46
0.04 0.04 0.06 0.07 0.07 0.08 0.09 0.09 0.08 0.06 0.05 0.04 0.04 0.05 0.05 0.06 0.07 0.08 0.09 0.11 0.13 0.13 0.15 0.16 0.16 0.17 0.17 0.18 0.21 0.25 0.31 0.37 0.38 0.37 0.38 0.40 0.40 0.40 0.40 0.42 0.42 0.41 0.41
0.03 0.04 0.04 0.04 0.05 0.05 0.05 0.06 0.06 0.06 0.06 0.05 0.05 0.06 0.06 0.07 0.07 0.08 0.09 0.11 0.12 0.14 0.17 0.19 0.20 0.22 0.22 0.20 0.28 0.35 0.36 0.40 0.43 0.47 0.45 0.41 0.38 0.37 0.35 0.35 0.36 0.37 0.40
0.05 0.05 0.05 0.06 0.07 0.08 0.08 0.09 0.10 0.10 0.10 0.09 0.09 0.09 0.09 0.10 0.10 0.11 0.11 0.13 0.15 0.17 0.20 0.21 0.22 0.21 0.24 0.27 0.34 0.39 0.42 0.47 0.54 0.59 0.51 0.40 0.34 0.33 0.34 0.36 0.37 0.38 0.39

GEFSMW_prec_meanprecacc_186.txt.gz
Total_Precipitation_Accumulation
0.92 1.03 1.11 1.39 1.62 1.77 1.92 2.04 2.13 2.20 2.43 2.57 2.56 2.46 2.28 2.04 1.92 1.87 1.77 1.64 1.56 1.58 1.57 1.44 1.32 1.25 1.14 0.99 0.86 0.78 0.74 0.68 0.66 0.66 0.56 0.47 0.44 0.40 0.35 0.34 0.34 0.32 0.31
0.81 0.91 0.98 1.12 1.30 1.50 1.73 1.94 2.04 2.14 2.16 2.21 2.42 2.55 2.60 2.41 2.12 1.93 1.83 1.72 1.66 1.64 1.60 1.58 1.52 1.43 1.35 1.27 1.18 1.08 0.98 0.91 0.90 0.90 0.85 0.68 0.52 0.41 0.36 0.37 0.37 0.36 0.36
0.67 0.75 0.84 1.04 1.16 1.29 1.52 1.81 1.97 2.08 2.08 2.12 2.36 2.55 2.70 2.54 2.25 1.92 1.75 1.75 1.77 1.77 1.68 1.67 1.68 1.59 1.49 1.39 1.33 1.24 1.16 1.07 1.03 1.03 1.08 0.92 0.65 0.45 0.36 0.32 0.32 0.35 0.37
0.57 0.63 0.74 0.88 0.99 1.14 1.31 1.50 1.69 1.86 2.03 2.09 2.14 2.19 2.28 2.27 2.06 1.96 1.88 1.89 1.88 1.87 1.81 1.77 1.76 1.72 1.62 1.46 1.39 1.33 1.22 1.14 1.08 1.05 0.98 0.89 0.72 0.66 0.51 0.35 0.32 0.34 0.34
0.58 0.59 0.71 0.86 0.90 1.01 1.25 1.39 1.47 1.64 1.84 1.99 2.06 2.16 2.12 2.14 2.21 2.17 2.09 2.00 1.94 1.90 1.82 1.76 1.76 1.68 1.61 1.56 1.56 1.48 1.39 1.27 1.17 1.10 1.04 1.02 0.86 0.71 0.68 0.51 0.37 0.37 0.37
0.68 0.71 0.79 0.84 0.87 0.91 1.11 1.32 1.34 1.42 1.55 1.76 1.97 2.05 1.96 1.97 2.03 2.01 1.97 1.97 1.96 1.93 1.83 1.72 1.67 1.63 1.61 1.58 1.59 1.61 1.51 1.43 1.34 1.25 1.17 1.15 1.08 0.91 0.85 0.76 0.53 0.45 0.40
0.65 0.72 0.77 0.74 0.76 0.81 0.94 1.12 1.22 1.32 1.38 1.51 1.66 1.84 1.92 1.90 1.93 1.95 1.90 1.82 1.74 1.67 1.66 1.66 1.61 1.56 1.51 1.52 1.52 1.56 1.51 1.44 1.38 1.30 1.24 1.20 1.14 1.04 1.02 0.96 0.76 0.61 0.49
0.51 0.55 0.64 0.68 0.72 0.74 0.79 0.87 0.93 1.02 1.09 1.15 1.26 1.40 1.61 1.71 1.67 1.72 1.72 1.69 1.61 1.58 1.58 1.57 1.58 1.58 1.56 1.51 1.51 1.51 1.49 1.45 1.35 1.24 1.18 1.13 1.07 1.06 1.07 1.06 1.05 0.97 0.75
0.50 0.51 0.57 0.61 0.66 0.70 0.74 0.76 0.78 0.84 0.93 0.95 1.02 1.06 1.23 1.37 1.42 1.47 1.46 1.39 1.39 1.45 1.46 1.45 1.46 1.48 1.49 1.47 1.47 1.45 1.42 1.41 1.36 1.29 1.21 1.10 0.99 0.97 0.98 1.01 1.07 1.18 1.08
0.48 0.46 0.52 0.55 0.59 0.64 0.70 0.69 0.69 0.71 0.82 0.88 0.92 0.94 1.00 1.08 1.20 1.28 1.21 1.18 1.20 1.24 1.27 1.26 1.27 1.29 1.31 1.32 1.34 1.31 1.28 1.26 1.21 1.20 1.19 1.15 1.06 1.02 1.03 1.07 1.12 1.20 1.25
0.48 0.48 0.51 0.54 0.57 0.63 0.64 0.63 0.67 0.69 0.73 0.79 0.79 0.81 0.85 0.88 0.94 1.01 1.03 1.01 1.05 1.04 1.05 1.06 1.07 1.07 1.10 1.14 1.18 1.14 1.12 1.15 1.14 1.12 1.14 1.15 1.13 1.14 1.13 1.17 1.23 1.28 1.35
0.45 0.45 0.46 0.50 0.54 0.55 0.52 0.51 0.59 0.63 0.68 0.72 0.70 0.72 0.75 0.77 0.79 0.82 0.87 0.87 0.89 0.91 0.93 0.94 0.94 0.91 0.90 0.94 0.99 1.02 1.00 1.00 1.02 1.05 1.10 1.12 1.13 1.18 1.20 1.25 1.28 1.31 1.30
0.33 0.33 0.34 0.36 0.37 0.37 0.37 0.42 0.47 0.47 0.49 0.52 0.51 0.53 0.56 0.59 0.64 0.67 0.67 0.69 0.74 0.79 0.81 0.82 0.84 0.85 0.83 0.85 0.88 0.88 0.90 0.90 0.90 0.91 0.94 0.95 1.00 1.06 1.08 1.13 1.19 1.20 1.21
0.25 0.27 0.28 0.27 0.28 0.29 0.32 0.34 0.33 0.35 0.39 0.39 0.39 0.41 0.44 0.47 0.49 0.52 0.51 0.52 0.56 0.61 0.65 0.70 0.73 0.74 0.75 0.79 0.83 0.86 0.86 0.84 0.82 0.82 0.84 0.86 0.91 0.96 1.01 1.07 1.10 1.13 1.15
0.20 0.22 0.23 0.23 0.24 0.25 0.26 0.27 0.28 0.35 0.39 0.41 0.40 0.38 0.38 0.40 0.43 0.45 0.45 0.44 0.44 0.45 0.47 0.54 0.61 0.67 0.68 0.73 0.77 0.80 0.84 0.84 0.84 0.85 0.89 0.94 1.04 1.05 1.02 0.99 0.97 1.00 1.06
0.15 0.16 0.18 0.19 0.20 0.22 0.25 0.28 0.33 0.41 0.45 0.48 0.43 0.40 0.39 0.38 0.36 0.35 0.35 0.35 0.36 0.37 0.40 0.45 0.50 0.57 0.63 0.80 0.79 0.74 0.75 0.83 0.88 0.89 0.88 0.91 1.01 0.99 0.98 0.92 0.88 0.90 0.98
0.12 0.13 0.14 0.17 0.19 0.25 0.30 0.36 0.41 0.47 0.49 0.52 0.48 0.42 0.39 0.37 0.34 0.31 0.31 0.33 0.36 0.39 0.42 0.45 0.48 0.54 0.68 0.84 0.81 0.84 0.77 0.80 0.85 0.87 0.84 0.80 0.76 0.78 0.70 0.76 0.81 0.82 0.82
0.08 0.08 0.10 0.12 0.14 0.19 0.26 0.33 0.40 0.51 0.54 0.53 0.51 0.50 0.50 0.50 0.52 0.52 0.52 0.53 0.52 0.53 0.58 0.63 0.66 0.70 0.78 0.84 0.76 0.73 0.68 0.72 0.73 0.71 0.69 0.65 0.60 0.57 0.58 0.61 0.67 0.59 0.55
0.06 0.06 0.07 0.08 0.08 0.11 0.17 0.26 0.38 0.53 0.64 0.69 0.68 0.68 0.72 0.77 0.81 0.83 0.82 0.81 0.82 0.82 0.80 0.77 0.73 0.69 0.70 0.70 0.65 0.61 0.56 0.57 0.56 0.53 0.51 0.51 0.48 0.55 0.63 0.58 0.54 0.49 0.47
0.08 0.07 0.07 0.09 0.11 0.13 0.20 0.33 0.49 0.63 0.73 0.76 0.80 0.83 0.90 0.96 0.94 0.92 0.89 0.82 0.76 0.75 0.74 0.72 0.68 0.62 0.55 0.50 0.45 0.43 0.40 0.39 0.37 0.35 0.35 0.41 0.43 0.52 0.60 0.53 0.50 0.47 0.40
0.18 0.18 0.19 0.22 0.24 0.26 0.35 0.50 0.60 0.68 0.71 0.71 0.73 0.75 0.75 0.76 0.75 0.73 0.70 0.65 0.59 0.53 0.49 0.46 0.42 0.37 0.35 0.33 0.32 0.32 0.30 0.31 0.32 0.32 0.30 0.32 0.42 0.47 0.50 0.51 0.45 0.45 0.48
0.22 0.29 0.35 0.38 0.38 0.40 0.47 0.55 0.56 0.55 0.53 0.50 0.48 0.46 0.41 0.38 0.39 0.40 0.41 0.40 0.37 0.32 0.29 0.26 0.24 0.22 0.21 0.23 0.25 0.29 0.32 0.35 0.33 0.31 0.29 0.31 0.43 0.48 0.49 0.46 0.46 0.52 0.56
0.10 0.14 0.20 0.24 0.25 0.25 0.28 0.30 0.27 0.23 0.20 0.17 0.16 0.14 0.12 0.12 0.13 0.14 0.15 0.18 0.21 0.21 0.20 0.20 0.20 0.19 0.18 0.20 0.24 0.27 0.33 0.38 0.36 0.32 0.35 0.38 0.43 0.45 0.44 0.45 0.48 0.49 0.46
0.04 0.05 0.06 0.07 0.08 0.08 0.09 0.09 0.08 0.06 0.05 0.04 0.05 0.05 0.05 0.07 0.08 0.09 0.11 0.13 0.14 0.15 0.18 0.19 0.19 0.19 0.19 0.19 0.22 0.26 0.31 0.38 0.39 0.38 0.38 0.41 0.41 0.41 0.40 0.42 0.43 0.42 0.42
0.04 0.04 0.04 0.05 0.05 0.05 0.05 0.06 0.06 0.06 0.06 0.05 0.05 0.06 0.07 0.08 0.08 0.09 0.11 0.12 0.13 0.15 0.20 0.22 0.22 0.24 0.24 0.22 0.30 0.36 0.37 0.41 0.44 0.48 0.46 0.42 0.39 0.37 0.36 0.36 0.36 0.38 0.40
0.05 0.05 0.05 0.06 0.07 0.08 0.09 0.09 0.10 0.10 0.10 0.10 0.09 0.09 0.10 0.11 0.11 0.11 0.12 0.14 0.16 0.18 0.21 0.23 0.24 0.24 0.26 0.29 0.36 0.41 0.43 0.48 0.55 0.60 0.52 0.41 0.35 0.34 0.35 0.36 0.37 0.38 0.40

GEFSMW_prec_meanprecacc_192.txt.gz
Total_Precipitation_Accumulation
0.93 1.03 1.12 1.40 1.62 1.78 1.94 2.06 2.15 2.22 2.45 2.61 2.61 2.54 2.38 2.13 2.01 1.97 1.81 1.66 1.57 1.59 1.59 1.46 1.37 1.31 1.21 1.07 0.97 0.89 0.85 0.82 0.78 0.74 0.61 0.50 0.46 0.44 0.39 0.37 0.36 0.33 0.32
0.82 0.93 0.99 1.13 1.31 1.51 1.75 1.96 2.05 2.15 2.17 2.25 2.46 2.62 2.69 2.49 2.18 2.00 1.90 1.76 1.67 1.65 1.61 1.59 1.54 1.46 1.38 1.32 1.25 1.18 1.09 1.03 1.04 1.01 0.93 0.74 0.56 0.44 0.39 0.41 0.40 0.38 0.37
0.68 0.76 0.85 1.05 1.18 1.31 1.54 1.83 1.99 2.10 2.10 2.14 2.40 2.62 2.77 2.62 2.31 1.96 1.79 1.79 1.79 1.78 1.69 1.68 1.69 1.61 1.51 1.42 1.37 1.32 1.26 1.18 1.15 1.16 1.18 0.99 0.71 0.49 0.39 0.35 0.36 0.37 0.38
0.58 0.63 0.75 0.89 1.01 1.17 1.34 1.52 1.71 1.87 2.04 2.11 2.16 2.23 2.33 2.32 2.11 2.00 1.91 1.92 1.90 1.88 1.82 1.78 1.77 1.73 1.64 1.49 1.43 1.37 1.29 1.24 1.19 1.17 1.09 0.97 0.78 0.70 0.54 0.39 0.36 0.37 0.37
0.58 0.59 0.71 0.86 0.92 1.04 1.28 1.41 1.49 1.65 1.85 2.00 2.07 2.18 2.15 2.18 2.24 2.20 2.12 2.03 1.97 1.91 1.83 1.78 1.77 1.70 1.63 1.58 1.59 1.52 1.45 1.35 1.25 1.19 1.14 1.11 0.94 0.78 0.73 0.56 0.42 0.41 0.40
0.68 0.72 0.79 0.85 0.88 0.93 1.13 1.34 1.36 1.44 1.57 1.78 1.99 2.07 1.99 2.00 2.05 2.03 2.00 1.99 1.99 1.95 1.85 1.74 1.69 1.65 1.63 1.60 1.61 1.65 1.57 1.51 1.42 1.33 1.25 1.24 1.17 0.98 0.91 0.81 0.59 0.51 0.45
0.65 0.72 0.78 0.74 0.77 0.83 0.97 1.16 1.26 1.35 1.41 1.54 1.69 1.87 1.96 1.94 1.96 1.97 1.93 1.85 1.77 1.69 1.68 1.69 1.63 1.58 1.53 1.54 1.55 1.60 1.57 1.51 1.45 1.37 1.31 1.28 1.22 1.12 1.08 1.01 0.82 0.67 0.55
0.51 0.56 0.65 0.69 0.74 0.77 0.82 0.91 0.97 1.04 1.11 1.19 1.30 1.44 1.65 1.75 1.71 1.75 1.75 1.72 1.64 1.61 1.61 1.60 1.60 1.60 1.57 1.53 1.54 1.54 1.54 1.52 1.43 1.32 1.25 1.20 1.14 1.13 1.14 1.11 1.09 1.02 0.80
0.50 0.51 0.58 0.61 0.67 0.73 0.78 0.79 0.81 0.86 0.95 0.97 1.04 1.10 1.28 1.44 1.48 1.53 1.51 1.43 1.43 1.49 1.49 1.47 1.48 1.50 1.51 1.48 1.49 1.49 1.45 1.45 1.41 1.34 1.27 1.16 1.04 1.03 1.04 1.05 1.11 1.21 1.11
0.49 0.47 0.52 0.55 0.59 0.66 0.72 0.72 0.72 0.74 0.86 0.90 0.94 0.97 1.03 1.13 1.26 1.35 1.28 1.24 1.25 1.28 1.30 1.29 1.29 1.31 1.33 1.33 1.36 1.34 1.31 1.29 1.25 1.23 1.23 1.19 1.09 1.06 1.07 1.10 1.14 1.21 1.26
0.49 0.50 0.53 0.55 0.59 0.65 0.66 0.64 0.70 0.72 0.78 0.83 0.82 0.83 0.88 0.92 0.98 1.06 1.09 1.07 1.10 1.09 1.09 1.10 1.10 1.09 1.13 1.17 1.19 1.16 1.15 1.18 1.17 1.15 1.16 1.17 1.16 1.18 1.17 1.21 1.26 1.30 1.36
0.46 0.45 0.47 0.51 0.56 0.58 0.56 0.54 0.61 0.66 0.72 0.75 0.72 0.74 0.78 0.81 0.84 0.87 0.92 0.92 0.94 0.96 0.97 0.98 0.97 0.93 0.92 0.96 1.00 1.03 1.02 1.03 1.05 1.08 1.12 1.14 1.15 1.21 1.24 1.28 1.31 1.33 1.31
0.33 0.33 0.34 0.36 0.38 0.38 0.40 0.46 0.51 0.50 0.52 0.55 0.54 0.56 0.59 0.63 0.69 0.72 0.72 0.75 0.80 0.83 0.85 0.86 0.87 0.87 0.84 0.86 0.89 0.89 0.91 0.91 0.93 0.94 0.97 0.97 1.02 1.08 1.11 1.17 1.23 1.23 1.22
0.25 0.27 0.28 0.27 0.28 0.30 0.32 0.36 0.35 0.38 0.41 0.41 0.41 0.43 0.46 0.49 0.53 0.56 0.56 0.57 0.61 0.66 0.69 0.74 0.77 0.76 0.77 0.81 0.85 0.88 0.89 0.86 0.85 0.85 0.87 0.88 0.93 0.97 1.03 1.10 1.14 1.15 1.16
0.20 0.23 0.24 0.23 0.24 0.25 0.27 0.28 0.29 0.36 0.42 0.43 0.42 0.40 0.40 0.42 0.46 0.49 0.50 0.49 0.49 0.50 0.52 0.57 0.64 0.69 0.70 0.74 0.78 0.82 0.86 0.87 0.87 0.88 0.92 0.97 1.06 1.07 1.03 1.00 0.99 1.02 1.07
0.15 0.16 0.18 0.19 0.20 0.22 0.25 0.28 0.33 0.42 0.46 0.49 0.46 0.42 0.40 0.39 0.37 0.37 0.37 0.37 0.39 0.40 0.43 0.48 0.51 0.58 0.65 0.82 0.80 0.75 0.76 0.85 0.90 0.91 0.91 0.94 1.04 1.02 1.00 0.95 0.90 0.92 0.99
0.12 0.13 0.14 0.17 0.19 0.25 0.30 0.36 0.41 0.48 0.50 0.53 0.49 0.44 0.40 0.38 0.35 0.32 0.32 0.34 0.37 0.39 0.43 0.46 0.50 0.55 0.69 0.86 0.82 0.85 0.78 0.81 0.86 0.88 0.87 0.83 0.79 0.81 0.73 0.78 0.83 0.84 0.83
0.08 0.09 0.10 0.12 0.14 0.19 0.27 0.34 0.40 0.52 0.54 0.53 0.52 0.51 0.51 0.51 0.53 0.52 0.53 0.53 0.52 0.54 0.58 0.64 0.67 0.71 0.80 0.86 0.78 0.75 0.70 0.73 0.75 0.73 0.71 0.67 0.62 0.60 0.60 0.62 0.68 0.61 0.57
0.06 0.06 0.07 0.08 0.08 0.11 0.17 0.26 0.38 0.53 0.64 0.70 0.68 0.69 0.73 0.77 0.82 0.84 0.83 0.82 0.83 0.82 0.80 0.78 0.74 0.70 0.71 0.71 0.66 0.62 0.57 0.58 0.57 0.54 0.53 0.53 0.51 0.58 0.65 0.60 0.55 0.50 0.48
0.08 0.07 0.07 0.09 0.11 0.13 0.20 0.33 0.49 0.63 0.73 0.77 0.80 0.84 0.90 0.97 0.94 0.93 0.90 0.83 0.78 0.76 0.75 0.73 0.69 0.63 0.56 0.51 0.47 0.45 0.41 0.41 0.38 0.37 0.37 0.43 0.45 0.54 0.62 0.55 0.52 0.49 0.42
0.18 0.18 0.19 0.22 0.24 0.26 0.35 0.50 0.60 0.68 0.71 0.72 0.73 0.76 0.75 0.77 0.75 0.73 0.70 0.66 0.60 0.53 0.50 0.46 0.43 0.39 0.36 0.35 0.34 0.34 0.31 0.32 0.34 0.34 0.32 0.34 0.44 0.49 0.53 0.53 0.46 0.46 0.49
0.22 0.29 0.35 0.38 0.38 0.40 0.47 0.55 0.56 0.55 0.53 0.50 0.48 0.46 0.42 0.39 0.39 0.41 0.42 0.41 0.38 0.34 0.31 0.28 0.26 0.24 0.23 0.24 0.26 0.31 0.33 0.36 0.34 0.32 0.30 0.32 0.45 0.50 0.51 0.48 0.47 0.53 0.56
0.10 0.14 0.20 0.24 0.25 0.25 0.28 0.30 0.27 0.23 0.21 0.17 0.16 0.14 0.13 0.13 0.14 0.15 0.16 0.20 0.22 0.22 0.22 0.21 0.22 0.21 0.20 0.22 0.26 0.29 0.35 0.39 0.37 0.33 0.36 0.40 0.45 0.47 0.45 0.46 0.49 0.50 0.47
0.04 0.05 0.06 0.08 0.08 0.08 0.09 0.10 0.08 0.06 0.05 0.05 0.05 0.05 0.06 0.07 0.08 0.10 0.11 0.13 0.15 0.16 0.19 0.20 0.20 0.20 0.20 0.21 0.24 0.28 0.33 0.39 0.41 0.39 0.40 0.42 0.43 0.43 0.42 0.44 0.44 0.43 0.43
0.05 0.05 0.05 0.05 0.05 0.05 0.05 0.06 0.06 0.07 0.06 0.06 0.06 0.06 0.07 0.08 0.08 0.09 0.11 0.13 0.14 0.16 0.21 0.23 0.23 0.26 0.25 0.23 0.32 0.39 0.39 0.42 0.46 0.50 0.48 0.44 0.41 0.39 0.38 0.37 0.38 0.39 0.41
0.06 0.06 0.06 0.06 0.08 0.08 0.09 0.10 0.10 0.10 0.10 0.10 0.10 0.10 0.11 0.11 0.12 0.12 0.13 0.15 0.16 0.19 0.22 0.23 0.25 0.24 0.27 0.31 0.38 0.43 0.46 0.50 0.57 0.62 0.54 0.43 0.37 0.36 0.36 0.38 0.39 0.39 0.41

GEFSMW_prec_meanprecacc_198.txt.gz
Total_Precipitation_Accumulation
0.94 1.04 1.13 1.42 1.65 1.80 1.96 2.08 2.18 2.25 2.48 2.64 2.62 2.55 2.39 2.16 2.04 2.01 1.88 1.75 1.65 1.66 1.64 1.50 1.40 1.35 1.27 1.16 1.07 0.98 0.93 0.89 0.85 0.83 0.71 0.58 0.53 0.50 0.45 0.41 0.39 0.36 0.34
0.83 0.93 1.00 1.15 1.33 1.53 1.77 1.98 2.07 2.18 2.20 2.28 2.48 2.63 2.70 2.50 2.20 2.04 1.96 1.84 1.75 1.72 1.67 1.63 1.56 1.48 1.42 1.39 1.34 1.28 1.18 1.11 1.11 1.10 1.05 0.87 0.69 0.53 0.47 0.48 0.46 0.42 0.40
0.68 0.77 0.85 1.06 1.19 1.32 1.56 1.86 2.01 2.12 2.13 2.17 2.42 2.64 2.79 2.63 2.33 1.99 1.83 1.84 1.86 1.84 1.74 1.71 1.72 1.62 1.53 1.45 1.41 1.37 1.31 1.24 1.22 1.24 1.28 1.12 0.84 0.60 0.48 0.43 0.43 0.43 0.43
0.58 0.64 0.75 0.90 1.02 1.18 1.36 1.53 1.72 1.89 2.07 2.13 2.18 2.24 2.35 2.34 2.13 2.02 1.93 1.94 1.93 1.92 1.86 1.80 1.79 1.74 1.65 1.51 1.45 1.40 1.31 1.27 1.23 1.23 1.17 1.07 0.89 0.81 0.66 0.48 0.44 0.45 0.45
0.58 0.59 0.71 0.87 0.92 1.05 1.29 1.42 1.50 1.68 1.88 2.03 2.10 2.21 2.17 2.19 2.26 2.21 2.14 2.05 1.99 1.93 1.85 1.80 1.79 1.71 1.64 1.60 1.61 1.54 1.48 1.37 1.28 1.23 1.20 1.17 1.02 0.86 0.82 0.65 0.50 0.50 0.50
0.68 0.72 0.79 0.85 0.88 0.93 1.14 1.35 1.38 1.47 1.59 1.80 2.03 2.11 2.02 2.03 2.07 2.05 2.01 2.01 2.00 1.97 1.87 1.75 1.70 1.67 1.64 1.61 1.63 1.67 1.60 1.53 1.45 1.36 1.28 1.28 1.21 1.04 0.98 0.89 0.67 0.59 0.54
0.65 0.72 0.78 0.75 0.77 0.83 0.97 1.16 1.26 1.36 1.42 1.56 1.72 1.92 2.00 1.97 1.98 1.99 1.95 1.87 1.78 1.71 1.69 1.70 1.65 1.60 1.55 1.56 1.57 1.62 1.60 1.54 1.48 1.41 1.35 1.32 1.26 1.17 1.14 1.08 0.90 0.76 0.64
0.51 0.56 0.65 0.69 0.74 0.77 0.82 0.91 0.98 1.06 1.13 1.20 1.32 1.48 1.70 1.80 1.75 1.78 1.77 1.74 1.66 1.63 1.63 1.62 1.62 1.62 1.59 1.55 1.56 1.56 1.56 1.55 1.46 1.35 1.29 1.24 1.18 1.18 1.20 1.18 1.17 1.12 0.90
0.50 0.51 0.58 0.61 0.67 0.73 0.78 0.80 0.83 0.89 0.97 0.99 1.06 1.13 1.31 1.47 1.53 1.57 1.54 1.46 1.45 1.51 1.52 1.50 1.51 1.53 1.54 1.51 1.52 1.51 1.48 1.48 1.45 1.38 1.30 1.19 1.08 1.07 1.08 1.10 1.16 1.28 1.19
0.49 0.47 0.52 0.55 0.59 0.66 0.73 0.73 0.75 0.78 0.90 0.93 0.96 0.99 1.05 1.15 1.30 1.40 1.32 1.27 1.28 1.31 1.34 1.32 1.32 1.35 1.36 1.36 1.38 1.36 1.33 1.31 1.27 1.27 1.27 1.22 1.13 1.10 1.11 1.16 1.20 1.27 1.32
0.49 0.50 0.53 0.55 0.59 0.66 0.67 0.65 0.72 0.76 0.85 0.89 0.85 0.85 0.89 0.93 1.00 1.09 1.12 1.09 1.12 1.11 1.11 1.12 1.12 1.11 1.15 1.18 1.21 1.17 1.17 1.20 1.19 1.17 1.20 1.22 1.19 1.20 1.19 1.24 1.30 1.34 1.40
0.46 0.46 0.47 0.51 0.56 0.59 0.57 0.56 0.63 0.69 0.79 0.82 0.77 0.76 0.80 0.83 0.86 0.89 0.94 0.94 0.96 0.99 0.99 1.00 0.99 0.96 0.94 0.98 1.02 1.04 1.04 1.05 1.07 1.10 1.15 1.17 1.18 1.24 1.26 1.31 1.34 1.36 1.35
0.33 0.33 0.35 0.37 0.39 0.40 0.42 0.49 0.53 0.52 0.57 0.60 0.57 0.58 0.60 0.65 0.71 0.74 0.75 0.77 0.82 0.86 0.88 0.89 0.90 0.90 0.87 0.89 0.91 0.91 0.92 0.94 0.95 0.97 0.99 1.00 1.04 1.11 1.15 1.20 1.25 1.25 1.24
0.25 0.27 0.29 0.28 0.29 0.31 0.34 0.39 0.38 0.40 0.45 0.46 0.45 0.45 0.48 0.50 0.55 0.58 0.58 0.60 0.64 0.69 0.72 0.77 0.80 0.80 0.81 0.85 0.89 0.91 0.91 0.88 0.87 0.87 0.89 0.91 0.95 0.99 1.05 1.12 1.16 1.17 1.18
0.20 0.23 0.24 0.24 0.26 0.27 0.28 0.30 0.33 0.39 0.44 0.46 0.46 0.43 0.42 0.44 0.48 0.51 0.52 0.51 0.53 0.53 0.55 0.60 0.67 0.72 0.74 0.77 0.81 0.84 0.87 0.88 0.88 0.90 0.94 0.99 1.09 1.09 1.05 1.02 1.02 1.04 1.10
0.15 0.17 0.18 0.20 0.22 0.24 0.27 0.30 0.36 0.44 0.48 0.51 0.47 0.44 0.42 0.41 0.39 0.39 0.41 0.41 0.42 0.43 0.46 0.51 0.54 0.60 0.67 0.85 0.83 0.78 0.78 0.86 0.91 0.93 0.93 0.96 1.07 1.04 1.02 0.97 0.92 0.94 1.01
0.12 0.13 0.14 0.18 0.20 0.27 0.33 0.38 0.43 0.50 0.52 0.55 0.50 0.46 0.42 0.40 0.37 0.35 0.35 0.37 0.40 0.42 0.46 0.48 0.52 0.57 0.71 0.89 0.86 0.89 0.80 0.83 0.88 0.91 0.89 0.85 0.82 0.84 0.76 0.81 0.85 0.86 0.85
0.08 0.09 0.10 0.12 0.14 0.19 0.28 0.35 0.42 0.54 0.56 0.55 0.53 0.52 0.52 0.53 0.55 0.54 0.54 0.55 0.54 0.56 0.61 0.66 0.69 0.72 0.82 0.89 0.82 0.79 0.72 0.75 0.77 0.75 0.73 0.70 0.65 0.63 0.64 0.66 0.71 0.63 0.59
0.06 0.06 0.07 0.08 0.08 0.11 0.18 0.27 0.39 0.54 0.66 0.71 0.69 0.70 0.74 0.79 0.84 0.86 0.85 0.84 0.85 0.85 0.83 0.80 0.76 0.72 0.73 0.75 0.71 0.66 0.60 0.61 0.59 0.56 0.56 0.56 0.53 0.61 0.69 0.64 0.60 0.54 0.52
0.08 0.07 0.07 0.09 0.11 0.13 0.20 0.33 0.49 0.64 0.74 0.77 0.81 0.84 0.90 0.98 0.96 0.95 0.93 0.86 0.80 0.79 0.78 0.76 0.72 0.65 0.59 0.55 0.51 0.49 0.45 0.43 0.40 0.39 0.39 0.46 0.47 0.57 0.65 0.58 0.56 0.53 0.45
0.18 0.18 0.19 0.22 0.24 0.26 0.35 0.50 0.60 0.68 0.72 0.72 0.73 0.76 0.75 0.77 0.76 0.75 0.73 0.69 0.63 0.57 0.53 0.49 0.45 0.41 0.39 0.38 0.37 0.37 0.34 0.34 0.36 0.36 0.34 0.36 0.47 0.53 0.57 0.58 0.50 0.50 0.53
0.22 0.29 0.35 0.38 0.38 0.40 0.47 0.55 0.56 0.55 0.53 0.51 0.49 0.46 0.42 0.39 0.40 0.41 0.43 0.43 0.40 0.36 0.33 0.31 0.29 0.26 0.25 0.27 0.29 0.33 0.36 0.38 0.36 0.34 0.32 0.35 0.48 0.54 0.55 0.52 0.51 0.58 0.61
0.10 0.14 0.21 0.25 0.25 0.25 0.28 0.30 0.27 0.24 0.21 0.18 0.16 0.15 0.13 0.13 0.15 0.16 0.18 0.21 0.24 0.24 0.24 0.23 0.23 0.23 0.22 0.24 0.28 0.32 0.38 0.43 0.40 0.35 0.38 0.42 0.47 0.50 0.48 0.49 0.53 0.54 0.51
0.05 0.06 0.07 0.08 0.08 0.08 0.09 0.10 0.08 0.06 0.06 0.05 0.06 0.06 0.07 0.09 0.10 0.12 0.13 0.15 0.16 0.18 0.20 0.22 0.22 0.21 0.21 0.22 0.25 0.30 0.35 0.42 0.43 0.41 0.41 0.44 0.44 0.44 0.43 0.46 0.47 0.46 0.46
0.06 0.06 0.06 0.06 0.06 0.06 0.06 0.07 0.07 0.07 0.07 0.07 0.07 0.07 0.08 0.09 0.10 0.11 0.12 0.14 0.15 0.17 0.22 0.24 0.25 0.27 0.26 0.24 0.33 0.40 0.41 0.44 0.48 0.52 0.49 0.45 0.42 0.40 0.39 0.39 0.40 0.42 0.44
0.07 0.07 0.07 0.08 0.09 0.10 0.11 0.11 0.12 0.12 0.12 0.12 0.12 0.11 0.12 0.12 0.13 0.13 0.14 0.15 0.17 0.19 0.22 0.24 0.26 0.25 0.27 0.31 0.39 0.44 0.47 0.52 0.59 0.64 0.55 0.44 0.38 0.37 0.38 0.39 0.41 0.42 0.43

GEFSMW_prec_meanprecacc_204.txt.gz
Total_Precipitation_Accumulation
0.97 1.08 1.16 1.45 1.70 1.87 2.05 2.16 2.24 2.31 2.53 2.67 2.64 2.57 2.41 2.17 2.06 2.02 1.89 1.75 1.67 1.69 1.69 1.56 1.46 1.40 1.30 1.18 1.09 1.02 1.00 0.97 0.92 0.89 0.76 0.64 0.58 0.55 0.49 0.45 0.42 0.39 0.37
0.84 0.97 1.03 1.17 1.37 1.59 1.83 2.06 2.15 2.24 2.25 2.31 2.51 2.65 2.72 2.52 2.22 2.05 1.96 1.84 1.76 1.74 1.70 1.67 1.61 1.52 1.45 1.41 1.36 1.31 1.22 1.16 1.16 1.14 1.10 0.93 0.75 0.60 0.52 0.53 0.52 0.48 0.46
0.69 0.79 0.88 1.09 1.24 1.38 1.62 1.91 2.06 2.18 2.19 2.22 2.46 2.67 2.81 2.66 2.34 2.00 1.84 1.85 1.86 1.86 1.76 1.74 1.75 1.66 1.55 1.46 1.43 1.40 1.34 1.28 1.26 1.28 1.33 1.17 0.91 0.67 0.55 0.50 0.51 0.51 0.50
0.58 0.64 0.77 0.93 1.05 1.22 1.40 1.57 1.75 1.91 2.10 2.17 2.21 2.27 2.37 2.36 2.14 2.03 1.94 1.95 1.95 1.94 1.88 1.82 1.81 1.77 1.68 1.53 1.47 1.42 1.34 1.30 1.26 1.25 1.21 1.11 0.94 0.87 0.73 0.55 0.51 0.53 0.52
0.61 0.61 0.73 0.89 0.95 1.07 1.33 1.45 1.52 1.69 1.90 2.05 2.12 2.22 2.18 2.21 2.27 2.23 2.15 2.06 2.01 1.96 1.89 1.83 1.81 1.73 1.66 1.62 1.63 1.56 1.50 1.40 1.31 1.26 1.22 1.20 1.04 0.89 0.87 0.70 0.54 0.55 0.55
0.68 0.72 0.80 0.86 0.91 0.98 1.17 1.38 1.39 1.47 1.60 1.82 2.04 2.12 2.03 2.03 2.08 2.07 2.03 2.02 2.02 1.99 1.90 1.78 1.73 1.69 1.66 1.63 1.64 1.69 1.62 1.55 1.47 1.38 1.30 1.30 1.24 1.07 1.02 0.93 0.71 0.63 0.58
0.65 0.72 0.78 0.75 0.80 0.88 1.00 1.19 1.28 1.37 1.43 1.56 1.73 1.93 2.01 1.99 2.00 2.00 1.96 1.89 1.80 1.73 1.72 1.73 1.67 1.61 1.56 1.57 1.58 1.64 1.62 1.56 1.51 1.43 1.36 1.34 1.28 1.19 1.17 1.12 0.94 0.81 0.69
0.51 0.56 0.65 0.69 0.76 0.81 0.86 0.93 1.00 1.07 1.13 1.21 1.33 1.50 1.72 1.82 1.77 1.79 1.78 1.75 1.67 1.65 1.65 1.64 1.64 1.64 1.61 1.56 1.57 1.58 1.58 1.57 1.49 1.38 1.32 1.26 1.20 1.21 1.23 1.21 1.22 1.17 0.95
0.51 0.51 0.58 0.61 0.68 0.75 0.81 0.82 0.84 0.89 0.97 0.99 1.07 1.15 1.33 1.49 1.54 1.59 1.55 1.47 1.46 1.52 1.53 1.52 1.53 1.55 1.56 1.54 1.55 1.54 1.51 1.51 1.48 1.41 1.33 1.21 1.09 1.08 1.10 1.13 1.20 1.33 1.23
0.49 0.47 0.52 0.55 0.59 0.67 0.74 0.75 0.76 0.79 0.91 0.95 0.97 1.01 1.08 1.17 1.32 1.41 1.34 1.29 1.29 1.32 1.35 1.34 1.34 1.36 1.38 1.39 1.41 1.40 1.37 1.35 1.30 1.30 1.30 1.25 1.15 1.12 1.14 1.19 1.24 1.32 1.37
0.49 0.50 0.53 0.55 0.59 0.66 0.67 0.66 0.73 0.78 0.87 0.91 0.88 0.87 0.92 0.97 1.02 1.11 1.14 1.11 1.14 1.12 1.12 1.13 1.14 1.13 1.16 1.20 1.23 1.20 1.20 1.24 1.23 1.21 1.23 1.25 1.22 1.23 1.22 1.27 1.33 1.38 1.44
0.46 0.46 0.47 0.51 0.56 0.59 0.57 0.56 0.63 0.70 0.81 0.84 0.79 0.78 0.83 0.88 0.89 0.90 0.95 0.96 0.98 1.00 1.01 1.01 1.01 0.97 0.95 1.00 1.04 1.06 1.06 1.09 1.11 1.13 1.18 1.21 1.22 1.27 1.29 1.33 1.37 1.39 1.38
0.33 0.33 0.35 0.37 0.39 0.40 0.42 0.49 0.53 0.53 0.58 0.62 0.60 0.59 0.62 0.68 0.74 0.76 0.76 0.78 0.83 0.87 0.90 0.90 0.91 0.91 0.89 0.91 0.93 0.93 0.94 0.96 0.98 1.00 1.03 1.03 1.08 1.15 1.19 1.24 1.28 1.28 1.27
0.25 0.27 0.29 0.28 0.30 0.32 0.35 0.40 0.40 0.41 0.47 0.48 0.47 0.47 0.49 0.52 0.57 0.60 0.60 0.61 0.65 0.70 0.73 0.78 0.81 0.81 0.82 0.86 0.91 0.94 0.93 0.91 0.90 0.89 0.92 0.94 0.98 1.02 1.08 1.15 1.19 1.20 1.20
0.20 0.23 0.24 0.24 0.27 0.28 0.30 0.32 0.35 0.41 0.47 0.49 0.49 0.47 0.45 0.46 0.49 0.53 0.54 0.53 0.54 0.54 0.56 0.61 0.68 0.73 0.75 0.78 0.83 0.86 0.89 0.90 0.90 0.91 0.96 1.01 1.12 1.12 1.07 1.04 1.03 1.06 1.12
0.15 0.17 0.18 0.20 0.22 0.26 0.30 0.33 0.39 0.48 0.52 0.55 0.51 0.50 0.47 0.44 0.42 0.41 0.43 0.43 0.44 0.45 0.49 0.53 0.56 0.63 0.69 0.87 0.86 0.80 0.80 0.88 0.93 0.95 0.95 0.98 1.09 1.07 1.04 0.98 0.94 0.96 1.03
0.13 0.14 0.15 0.18 0.20 0.28 0.35 0.42 0.47 0.55 0.57 0.59 0.54 0.50 0.46 0.43 0.40 0.37 0.37 0.39 0.41 0.44 0.48 0.51 0.55 0.60 0.74 0.91 0.88 0.91 0.82 0.85 0.90 0.93 0.92 0.87 0.84 0.87 0.78 0.82 0.87 0.87 0.87
0.09 0.09 0.11 0.13 0.14 0.20 0.30 0.39 0.46 0.57 0.60 0.59 0.58 0.57 0.57 0.57 0.59 0.58 0.58 0.58 0.56 0.58 0.63 0.68 0.71 0.74 0.84 0.91 0.84 0.81 0.74 0.77 0.79 0.77 0.76 0.72 0.67 0.65 0.66 0.68 0.73 0.65 0.61
0.06 0.06 0.08 0.09 0.09 0.12 0.19 0.29 0.42 0.58 0.70 0.76 0.74 0.74 0.78 0.84 0.89 0.91 0.90 0.88 0.88 0.87 0.84 0.82 0.77 0.73 0.74 0.77 0.73 0.68 0.62 0.63 0.62 0.58 0.58 0.58 0.55 0.63 0.72 0.67 0.62 0.55 0.53
0.09 0.08 0.08 0.10 0.12 0.14 0.21 0.35 0.52 0.68 0.78 0.82 0.85 0.88 0.94 1.01 0.99 0.98 0.95 0.88 0.83 0.82 0.80 0.78 0.73 0.67 0.60 0.58 0.54 0.52 0.47 0.46 0.43 0.41 0.41 0.48 0.49 0.60 0.68 0.61 0.58 0.55 0.46
0.18 0.19 0.20 0.23 0.25 0.27 0.36 0.51 0.62 0.71 0.75 0.76 0.77 0.80 0.79 0.81 0.79 0.77 0.74 0.70 0.64 0.59 0.55 0.51 0.47 0.43 0.41 0.40 0.39 0.40 0.37 0.37 0.38 0.38 0.37 0.39 0.50 0.55 0.59 0.60 0.52 0.52 0.54
0.23 0.30 0.36 0.39 0.39 0.41 0.48 0.55 0.57 0.57 0.56 0.54 0.52 0.50 0.46 0.43 0.43 0.44 0.45 0.44 0.42 0.38 0.36 0.33 0.32 0.29 0.28 0.29 0.31 0.36 0.40 0.42 0.40 0.37 0.36 0.39 0.52 0.58 0.58 0.54 0.53 0.59 0.63
0.11 0.15 0.22 0.25 0.26 0.26 0.29 0.31 0.28 0.25 0.22 0.20 0.20 0.19 0.17 0.17 0.19 0.20 0.21 0.23 0.25 0.25 0.26 0.25 0.26 0.25 0.24 0.27 0.31 0.35 0.42 0.48 0.45 0.40 0.43 0.47 0.52 0.54 0.52 0.52 0.55 0.56 0.53
0.06 0.07 0.08 0.09 0.09 0.09 0.10 0.10 0.09 0.07 0.07 0.07 0.08 0.09 0.11 0.13 0.14 0.15 0.16 0.17 0.18 0.19 0.22 0.23 0.24 0.24 0.23 0.24 0.28 0.32 0.38 0.47 0.48 0.47 0.47 0.50 0.50 0.49 0.48 0.49 0.50 0.48 0.48
0.07 0.07 0.07 0.07 0.07 0.07 0.07 0.07 0.07 0.07 0.08 0.08 0.09 0.09 0.11 0.13 0.14 0.15 0.16 0.18 0.17 0.20 0.25 0.26 0.27 0.29 0.28 0.26 0.35 0.42 0.44 0.48 0.52 0.55 0.53 0.49 0.46 0.44 0.42 0.42 0.42 0.44 0.46
0.09 0.09 0.09 0.09 0.11 0.11 0.12 0.13 0.13 0.12 0.13 0.13 0.13 0.15 0.15 0.15 0.15 0.16 0.16 0.18 0.20 0.22 0.24 0.26 0.28 0.27 0.29 0.33 0.40 0.45 0.49 0.54 0.62 0.66 0.58 0.46 0.41 0.39 0.40 0.41 0.43 0.43 0.45